Home   Weather   Preston   Past weeks

Flag for United Kingdom Past Weather in Preston, England, United Kingdom — Yesterday and Last 2 Weeks

Now
48 °F

Scattered clouds.


Feels Like: 43 °F
Forecast: 46 / 50 °F
Wind: 12 mph from West

Location: Blackpool Airport

Current Time: Dec 11, 2016 at 2:02:11 pm

Latest Report: Dec 11, 2016 at 1:20 pm


Visibility: N/A

Pressure: 30.21 "Hg

Humidity: 94%

Dew Point: 46 °F

Location of PrestonLocation

Past Weather in Preston — Graph

°F

Preston Temperature Yesterday

Maximum temperature yesterday: 50 °F (at 11:50 am)
Minimum temperature yesterday: 48 °F (at 6:20 am)
Average temperature yesterday: 48 °F

High & Low Weather Summary for the Past Weeks

 TemperatureHumidityPressure
High57 °F (Dec 7, 12:20 pm)100% (Nov 26, 5:50 pm)30.57 "Hg (Nov 26, 5:50 pm)
Low27 °F (Nov 29, 6:20 am)66% (Dec 4, 2:20 pm)30.04 "Hg (Dec 7, 3:20 pm)
Average44 °F90%30.28 "Hg
* Reported Nov 26 12:20 pm — Dec 11 12:20 pm, Preston, Weather by CustomWeather, © 2016

Note: Actual official high and low records may vary slightly from our data, if they occured in-between our weather recording intervals... More about our weather records

Advertising

Preston Weather History for the Previous 24 Hours

Scroll right to see more
 ConditionsComfort  
Time TempWeatherWind HumidityBarometerVisibility
12:20 pm
Sun, Dec 11
48 °FScattered clouds.13 mph94%30.21 "HgN/A
11:50 am48 °FScattered clouds.17 mph94%30.21 "HgN/A
11:20 am48 °FScattered clouds.22 mph94%30.21 "HgN/A
10:50 am48 °FScattered clouds.16 mph94%30.21 "HgN/A
10:20 am48 °FPassing clouds.21 mph94%30.21 "HgN/A
9:50 am48 °FPassing clouds.14 mph94%30.18 "HgN/A
9:20 am48 °FPassing clouds.16 mph94%30.18 "HgN/A
8:50 am48 °FPassing clouds.16 mph94%30.18 "Hg6 mi
8:20 am48 °FPassing clouds.17 mph94%30.18 "Hg5 mi
7:50 am48 °FPassing clouds.16 mph94%30.18 "HgN/A
7:20 am48 °FPassing clouds.18 mph94%30.15 "HgN/A
6:50 am48 °FPassing clouds.16 mph94%30.15 "HgN/A
6:20 am48 °FPassing clouds.17 mph94%30.15 "HgN/A
8:50 pm
Sat, Dec 10
48 °FPassing clouds.15 mph94%30.07 "HgN/A
8:20 pm48 °FPassing clouds.14 mph94%30.07 "HgN/A
7:50 pm48 °FPassing clouds.14 mph100%30.07 "HgN/A
7:20 pm48 °FPassing clouds.15 mph94%30.07 "HgN/A
6:50 pm48 °FPassing clouds.13 mph94%30.07 "HgN/A
6:20 pm48 °FPassing clouds.13 mph94%30.07 "HgN/A
5:50 pm48 °FPassing clouds.12 mph94%30.07 "HgN/A
5:20 pm48 °FPartly cloudy.12 mph94%30.07 "Hg5 mi
4:50 pm48 °FLight rain. Partly cloudy.10 mph94%30.07 "Hg4 mi
4:20 pm48 °FLight rain. Partly cloudy.8 mph94%30.07 "Hg4 mi
3:50 pm48 °FPassing clouds.8 mph94%30.07 "Hg4 mi
3:20 pm48 °FLight rain. Passing clouds.6 mph94%30.07 "Hg5 mi
2:50 pm48 °FPassing clouds.6 mph94%30.07 "Hg5 mi
2:20 pm48 °FPassing clouds.5 mph94%30.07 "Hg5 mi
Weather by CustomWeather, © 2016

See weather overviewHow to use our weather pages